Location: Lane
(33.5226°N, 79.8788°W)
Time: 19:55:22
(UTC+00:00)

Courier 1B Rocket - Pass Details

Date: 12 October 2022
Orbit: 920 x 1202 km, 28.3° (Epoch: 01 December)

Event Time Altitude Azimuth Distance (km) Brightness Sun altitude
Rises 01:56:25 0° 268° (W) 3,816 8.9 -39.0°
Reaches altitude 10° 01:59:48 10° 255° (WSW) 2,808 7.9 -39.7°
Enters shadow 02:02:31 19° 234° (SW) 2,195 7.0 -40.2°
Maximum altitude 02:04:54 23° 206° (SSW) 1,967 - -40.7°
Drops below altitude 10° 02:09:46 10° 156° (SSE) 2,668 - -41.6°
Sets 02:12:54 0° 142° (SE) 3,580 - -42.2°
